Location: Newark
(46.7000°N, 60.6000°W)
Time: 04:09:04
(UTC+00:00)

A-11 Canister half - Pass Details

Date: 03 November 2020
Orbit: 1525 x 1683 km, 47.3° (Epoch: 23 November)

Event Time Altitude Azimuth Distance (km) Brightness Sun altitude
Rises 20:08:37 0° 275° (W) 4,772 12.7 4.5°
Reaches altitude 10° 20:11:44 10° 276° (W) 3,767 12.1 4.1°
Maximum altitude 20:21:17 88° 7° (N) 1,545 9.2 2.6°
Drops below altitude 10° 20:30:38 10° 98° (E) 3,692 10.5 1.2°
Sets 20:33:39 0° 99° (E) 4,672 11.0 0.7°
